Latest Coastal Weather Observations for Browse Island

IDW60701

Issued at 7:52 pm WST Tuesday 26 May 2015 (issued every 10 minutes, with the page automatically refreshed every 10 minutes)

About coastal observations | Map of coastal stations | Coastal observations for WA | Marine services | Other Formats
Station Details ID: 200784 Name: BROWSE ISLAND Lat: -14.11 Lon: 123.55 Height: 3.7 m
Data from the previous 72 hours. | See also: Recent months for locations in Western Australia
Date/Time
WST
Temp

°C
Wind Pressure Rain
since 9am
mm
Weather Cloud Vis
km
Sea
Height
m
Swell
Dir
 
Speed
knots
Gust
knots
hPa Trend Height
m
Period
s
Dir
26/07:30pm 28.0 E 6 - 1015.0 - - - - - - - - -
26/07:00pm 27.6 E 5 - 1015.2 - - - - - - - - -
26/06:30pm 28.0 E 7 - 1014.0 - - - - - - - - -
26/06:00pm 27.6 E 7 - 1014.3 - - - - - - - - -
26/05:30pm 28.0 E 7 - 1014.0 - - - - - - - - -
26/05:00pm 27.9 E 7 - 1013.9 - - - - - - - - -
26/04:30pm 28.0 ESE 7 - 1013.0 - - - - - - - - -
26/04:00pm 28.7 E 7 - 1013.2 - - - - - - - - -
26/03:30pm 29.0 E 7 - 1013.0 - - - - - - - - -
26/03:00pm 28.7 E 8 - 1013.0 - - - - - - - - -
26/02:30pm 29.0 E 8 - 1013.0 - - - - - - - - -
26/02:00pm 29.4 E 8 - 1013.0 - - - - - - - - -
26/01:30pm 29.0 E 8 - 1013.0 - - - - - - - - -
26/01:00pm 28.6 ENE 9 - 1013.6 - - - - - - - - -
26/12:30pm 30.0 E 9 - 1014.0 - - - - - - - - -
26/12:00pm 28.9 ENE 8 - 1014.6 - - - - - - - - -
26/11:30am 29.0 E 9 - 1015.0 - - - - - - - - -
26/11:00am 28.9 E 8 - 1015.7 - - - - - - - - -
26/10:30am 29.0 E 9 - 1016.0 - - - - - - - - -
26/10:00am 29.1 E 8 - 1016.4 - - - - - - - - -
26/09:30am 29.0 ENE 8 - 1016.0 - - - - - - - - -
26/09:00am 28.5 ENE 7 - 1016.8 - - - - - - - - -
26/08:30am 29.0 ENE 8 - 1016.0 - - - - - - - - -
26/08:00am 28.1 ENE 9 - 1016.4 - - - - - - - - -
26/07:30am 28.0 ENE 9 7 1016.0 - - - - - - - - -
26/07:00am 27.6 ENE 9 - 1016.2 - - - - - - - - -
26/06:30am 27.0 ENE 10 - 1016.0 - - - - - - - - -
26/06:00am 27.3 ENE 9 - 1015.7 - - - - - - - - -
26/05:30am 27.0 NE 9 - 1015.0 - - - - - - - - -
26/05:00am 27.3 ENE 10 - 1014.9 - - - - - - - - -
26/04:30am 27.0 NE 11 - 1014.0 - - - - - - - - -
26/04:00am 27.3 NE 11 - 1014.7 - - - - - - - - -
26/03:30am 27.0 NE 12 - 1014.0 - - - - - - - - -
26/03:00am 27.3 NE 12 - 1014.5 - - - - - - - - -
26/02:30am 27.0 NE 12 - 1014.0 - - - - - - - - -
26/02:00am 27.1 NE 12 - 1014.4 - - - - - - - - -
26/01:30am 27.0 NE 13 - 1014.0 - - - - - - - - -
26/01:00am 27.3 NE 14 - 1015.0 - - - - - - - - -
26/12:30am 27.0 NE 14 - 1015.0 - - - - - - - - -
26/12:00am 26.9 NE 13 14 1015.3 - - - - - - - - -
 
Date/Time
WST
Temp

°C
Wind Pressure Rain
since 9am
mm
Weather Cloud Vis
km
Sea
Height
m
Swell
Dir
 
Speed
knots
Gust
knots
hPa Trend Height
m
Period
s
Dir
25/11:30pm 27.0 NE 14 - 1015.0 - - - - - - - - -
25/11:00pm 26.9 NE 12 - 1015.7 - - - - - - - - -
25/10:30pm 27.0 NE 13 - 1016.0 - - - - - - - - -
25/10:00pm 27.0 NE 14 - 1016.0 - - - - - - - - -
25/09:30pm 27.0 NE 14 - 1016.0 - - - - - - - - -
25/09:00pm 27.2 NE 16 - 1015.9 - - - - - - - - -
25/08:30pm 27.0 NE 15 - 1015.0 - - - - - - - - -
25/08:00pm 27.3 ENE 15 - 1015.6 - - - - - - - - -
25/07:30pm 27.0 ENE 14 - 1015.0 - - - - - - - - -
25/07:00pm 27.0 ENE 14 - 1014.9 - - - - - - - - -
25/06:30pm 27.0 ENE 13 - 1014.0 - - - - - - - - -
25/06:00pm 27.2 NE 15 - 1014.3 - - - - - - - - -
25/05:30pm 27.0 NE 14 - 1014.0 - - - - - - - - -
25/05:00pm 27.3 ENE 14 - 1013.8 - - - - - - - - -
25/04:30pm 28.0 ENE 14 - 1013.0 - - - - - - - - -
25/04:00pm 27.6 ENE 13 - 1013.4 - - - - - - - - -
25/03:30pm 28.0 ENE 14 - 1013.0 - - - - - - - - -
25/03:00pm 28.1 ENE 14 - 1013.1 - - - - - - - - -
25/02:30pm 28.0 ENE 15 - 1013.0 - - - - - - - - -
25/02:00pm 28.5 ENE 17 - 1013.1 - - - - - - - - -
25/01:30pm 29.0 ENE 17 - 1013.0 - - - - - - - - -
25/01:00pm 28.6 ENE 17 - 1013.6 - - - - - - - - -
25/12:30pm 29.0 ENE 19 - 1014.0 - - - - - - - - -
25/12:00pm 28.5 ENE 19 - 1014.3 - - - - - - - - -
25/11:30am 29.0 ENE 18 - 1014.0 - - - - - - - - -
25/11:00am 28.8 ENE 18 - 1014.8 - - - - - - - - -
25/10:30am 29.0 ENE 18 - 1015.0 - - - - - - - - -
25/10:00am 28.5 ENE 17 - 1015.7 - - - - - - - - -
25/09:30am 29.0 ENE 17 - 1016.0 - - - - - - - - -
25/09:00am 28.4 ENE 17 - 1015.9 - - - - - - - - -
25/08:30am 28.0 ENE 17 - 1016.0 - - - - - - - - -
25/08:00am 27.9 ENE 18 - 1015.9 - - - - - - - - -
25/07:30am 28.0 NE 17 - 1015.0 - - - - - - - - -
25/07:00am 27.5 NE 15 - 1015.5 - - - - - - - - -
25/06:30am 27.0 NE 15 - 1015.0 - - - - - - - - -
25/06:00am 27.2 NE 16 - 1014.9 - - - - - - - - -
25/05:30am 27.0 NE 15 - 1014.0 - - - - - - - - -
25/05:00am 27.2 NE 16 - 1014.3 - - - - - - - - -
25/04:30am 27.0 NE 15 - 1014.0 - - - - - - - - -
25/04:00am 27.0 NE 15 - 1013.8 - - - - - - - - -
25/03:30am 27.0 NE 15 - 1013.0 - - - - - - - - -
25/03:00am 27.1 NE 15 - 1013.7 - - - - - - - - -
25/02:30am 27.0 NE 15 - 1013.0 - - - - - - - - -
25/02:00am 26.9 NE 15 - 1013.9 - - - - - - - - -
25/01:30am 27.0 NE 14 - 1014.0 - - - - - - - - -
25/01:00am 26.9 NE 13 - 1014.4 - - - - - - - - -
25/12:30am 27.0 NE 12 - 1014.0 - - - - - - - - -
25/12:00am 27.0 NE 12 - 1014.7 - - - - - - - - -
 
Date/Time
WST
Temp

°C
Wind Pressure Rain
since 9am
mm
Weather Cloud Vis
km
Sea
Height
m
Swell
Dir
 
Speed
knots
Gust
knots
hPa Trend Height
m
Period
s
Dir
24/11:30pm 27.0 NE 12 - 1014.0 - - - - - - - - -
24/11:00pm 27.1 NE 12 - 1014.9 - - - - - - - - -
24/10:30pm 27.0 NE 11 - 1015.0 - - - - - - - - -
24/10:00pm 27.0 NE 12 - 1015.2 - - - - - - - - -
24/09:30pm 27.0 NE 13 - 1015.0 - - - - - - - - -
24/09:00pm 27.1 NE 13 - 1015.3 - - - - - - - - -
24/08:30pm 27.0 ENE 15 - 1015.0 - - - - - - - - -
24/08:00pm 27.1 ENE 14 - 1015.3 - - - - - - - - -
24/07:30pm 27.0 ENE 15 - 1015.0 - - - - - - - - -
24/07:00pm 26.9 ENE 16 - 1014.6 - - - - - - - - -
24/06:30pm 27.0 ENE 15 - 1014.0 - - - - - - - - -
24/06:00pm 27.0 ENE 15 - 1013.9 - - - - - - - - -
24/05:30pm 27.0 NE 16 - 1013.0 - - - - - - - - -
24/05:00pm 27.4 ENE 15 - 1013.1 - - - - - - - - -
24/04:30pm 27.0 ENE 15 - 1013.0 - - - - - - - - -
24/04:00pm 27.5 ENE 16 - 1012.6 - - - - - - - - -
24/03:30pm 28.0 ENE 15 - 1012.0 - - - - - - - - -
24/03:00pm 27.6 ENE 15 - 1012.4 - - - - - - - - -
24/02:30pm 27.0 ENE 16 - 1012.0 - - - - - - - - -
24/02:00pm 28.3 ENE 15 - 1012.5 - - - - - - - - -
24/01:30pm 28.0 ENE 17 - 1012.0 - - - - - - - - -
24/01:00pm 28.3 ENE 16 - 1012.7 - - - - - - - - -
24/12:30pm 28.0 ENE 17 - 1013.0 - - - - - - - - -
24/12:00pm 28.7 ENE 17 - 1013.7 - - - - - - - - -
24/11:30am 29.0 E 17 - 1014.0 - - - - - - - - -
24/11:00am 28.8 ENE 17 - 1014.2 - - - - - - - - -
24/10:30am 29.0 E 19 - 1014.0 - - - - - - - - -
24/10:00am 28.8 E 18 - 1014.5 - - - - - - - - -
24/09:30am 29.0 ENE 18 - 1014.0 - - - - - - - - -
24/09:00am 28.6 ENE 17 - 1014.9 - - - - - - - - -
24/08:30am 29.0 ENE 17 - 1014.0 - - - - - - - - -
24/08:00am 28.6 ENE 18 - 1014.5 - - - - - - - - -
24/07:30am 29.0 ENE 16 - 1014.0 - - - - - - - - -
24/07:00am 28.2 ENE 15 - 1014.4 - - - - - - - - -
24/06:30am 28.0 ENE 15 - 1014.0 - - - - - - - - -
24/06:00am 27.9 ENE 15 - 1013.9 - - - - - - - - -
24/05:30am 28.0 ENE 16 - 1013.0 - - - - - - - - -
24/05:00am 27.7 ENE 16 - 1013.3 - - - - - - - - -
24/04:30am 28.0 NE 13 - 1013.0 - - - - - - - - -
24/04:00am 27.5 NE 13 - 1013.2 - - - - - - - - -
24/03:30am 28.0 NE 13 - 1013.0 - - - - - - - - -
24/03:00am 27.6 NE 12 - 1013.1 - - - - - - - - -
24/02:30am 27.0 NE 12 - 1013.0 - - - - - - - - -
24/02:00am 27.3 NE 12 - 1013.3 - - - - - - - - -
24/01:30am 28.0 NE 13 - 1013.0 - - - - - - - - -
24/01:00am 27.5 NE 13 - 1013.5 - - - - - - - - -
24/12:30am 28.0 NNE 14 - 1013.0 - - - - - - - - -
24/12:00am 27.4 NNE 13 - 1013.7 - - - - - - - - -
 
Date/Time
WST
Temp

°C
Wind Pressure Rain
since 9am
mm
Weather Cloud Vis
km
Sea
Height
m
Swell
Dir
 
Speed
knots
Gust
knots
hPa Trend Height
m
Period
s
Dir
23/11:30pm 27.0 NE 14 - 1014.0 - - - - - - - - -
23/11:00pm 27.3 NNE 14 - 1014.0 - - - - - - - - -
23/10:30pm 27.0 NE 15 - 1014.0 - - - - - - - - -
23/10:00pm 27.2 NNE 14 - 1014.1 - - - - - - - - -
23/09:30pm 27.0 NNE 15 - 1014.0 - - - - - - - - -
23/09:00pm 27.2 NNE 14 - 1014.1 - - - - - - - - -
23/08:30pm 27.0 NE 13 - 1014.0 - - - - - - - - -
23/08:00pm 27.5 NE 14 - 1014.1 - - - - - - - - -

Other Formats:

Comma delimited format used in spreadsheet applications
http://www.bom.gov.au/fwo/IDW60701/IDW60701.94103.axf

JavaScript Object Notation format (JSON) in row-major order
http://www.bom.gov.au/fwo/IDW60701/IDW60701.94103.json